TimeGMT,TemperatureF,Dew PointF,Humidity,Sea Level PressureIn,VisibilityMPH,Wind Direction,Wind SpeedMPH,Gust SpeedMPH,PrecipitationIn,Events,Conditions,WindDirDegrees,DateUTC
12:50 AM,50.0,48.2,94,29.74,4.3,SE,5.8,-,N/A,,Overcast,140,2012-11-17 00:50:00
1:50 AM,50.0,48.2,94,29.71,4.3,South,3.5,-,N/A,,Overcast,170,2012-11-17 01:50:00
2:50 AM,51,49,92,29.72,4,SSE,3.5,,,,Overcast,160,2012-11-17 02:50:00
2:50 AM,51.8,50.0,94,29.71,4.3,SSE,3.5,-,N/A,,Overcast,160,2012-11-17 02:50:00
3:50 AM,53.6,51.8,94,29.68,1.7,South,10.4,-,N/A,,Overcast,190,2012-11-17 03:50:00
4:50 AM,53.6,51.8,94,29.68,-9999.0,SSW,9.2,-,N/A,,Mostly Cloudy,200,2012-11-17 04:50:00
5:50 AM,53,51,92,29.69,5,South,8.1,,,,Scattered Clouds,190,2012-11-17 05:50:00
5:50 AM,53.6,51.8,94,29.68,5.0,South,8.1,-,N/A,,Mostly Cloudy,190,2012-11-17 05:50:00
6:50 AM,53.6,51.8,94,29.68,3.7,SSW,6.9,-,N/A,,Haze,200,2012-11-17 06:50:00
7:50 AM,53.6,51.8,94,29.68,-9999.0,SSW,6.9,-,N/A,Rain,Light Rain,210,2012-11-17 07:50:00
8:50 AM,54,52,89,29.71,5,SW,6.9,,,Rain,Light Rain,230,2012-11-17 08:50:00
8:50 AM,53.6,51.8,94,29.68,5.0,SW,6.9,-,N/A,,Haze,230,2012-11-17 08:50:00
9:50 AM,50.0,48.2,94,29.71,6.2,NW,10.4,-,N/A,,Overcast,310,2012-11-17 09:50:00
10:50 AM,50.0,46.4,87,29.74,6.2,NW,5.8,-,N/A,,Mostly Cloudy,320,2012-11-17 10:50:00
11:50 AM,51,44,71,29.75,25,NW,10.4,,,,Partly Cloudy,310,2012-11-17 11:50:00
11:50 AM,50.0,44.6,82,29.74,6.2,NW,10.4,-,N/A,,Mostly Cloudy,310,2012-11-17 11:50:00
12:50 PM,51.8,42.8,71,29.74,6.2,WNW,9.2,-,N/A,,Mostly Cloudy,300,2012-11-17 12:50:00
1:50 PM,50.0,42.8,76,29.74,6.2,NW,10.4,-,N/A,,Mostly Cloudy,310,2012-11-17 13:50:00
2:50 PM,50,43,68,29.77,31,NW,3.5,,,,Mostly Cloudy,310,2012-11-17 14:50:00
2:50 PM,50.0,42.8,76,29.74,6.2,NW,3.5,-,N/A,,Mostly Cloudy,310,2012-11-17 14:50:00
3:50 PM,50.0,42.8,76,29.77,6.2,NNW,1.2,-,N/A,,Mostly Cloudy,330,2012-11-17 15:50:00
4:50 PM,48.2,42.8,82,29.77,6.2,NNW,3.5,-,N/A,,Mostly Cloudy,330,2012-11-17 16:50:00
5:50 PM,48.2,42.8,82,29.80,6.2,NNW,4.6,-,N/A,,Mostly Cloudy,330,2012-11-17 17:50:00
6:50 PM,48.2,42.8,82,29.80,6.2,NW,3.5,-,N/A,,Mostly Cloudy,310,2012-11-17 18:50:00
7:50 PM,46.4,42.8,87,29.83,-9999.0,NNW,3.5,-,N/A,,Clear,330,2012-11-17 19:50:00
8:50 PM,45,41,82,29.85,19,WNW,3.5,,,,Partly Cloudy,300,2012-11-17 20:50:00
8:50 PM,44.6,41.0,87,29.83,6.2,WNW,3.5,-,N/A,,Mostly Cloudy,300,2012-11-17 20:50:00
9:50 PM,44.6,41.0,87,29.86,-9999.0,West,3.5,-,N/A,,Clear,280,2012-11-17 21:50:00
10:50 PM,44.6,39.2,81,29.86,-9999.0,NW,5.8,-,N/A,,Clear,310,2012-11-17 22:50:00
11:50 PM,42,38,79,29.89,25,NW,3.5,,,,Overcast,320,2012-11-17 23:50:00
11:50 PM,41.0,37.4,87,29.86,6.2,NW,3.5,-,N/A,,Overcast,320,2012-11-17 23:50:00